QPF
0.00 0.00 0.00 0.00 0.00 0.00 0.00 0.00 0.00 0.00 0.00 0.00 0.00 0.00 0.00 0.00 0.00 0.00 0.00 0.00 0.00 0.00 0.00 0.01 0.01 0.01 0.01 0.00 0.00 0.00 0.00 0.00 0.01 0.00 0.03 0.01 0.01 0.00 0.00 0.00 0.00 0.00 0.01 0.01 0.00 0.00 0.00 0.00 0.00 0.00 0.00 0.00 0.00 0.00 0.00 0.00 0.00 0.00 0.00 0.00 0.00 0.00 0.00
0.00 0.00 0.00 0.00 0.00 0.00 0.00 0.00 0.00 0.00 0.00 0.00 0.00 0.00 0.00 0.00 0.00 0.00 0.00 0.00 0.00 0.00 0.00 0.00 0.00 0.00 0.01 0.01 0.00 0.00 0.00 0.00 0.00 0.00 0.00 0.00 0.00 0.00 0.00 0.00 0.00 0.00 0.00 0.00 0.00 0.00 0.00 0.00 0.00 0.00 0.00 0.00 0.00 0.00 0.00 0.00 0.00 0.00 0.00 0.00 0.00 0.00 0.00
0.00 0.00 0.00 0.00 0.00 0.00 0.00 0.00 0.00 0.00 0.00 0.00 0.00 0.00 0.00 0.00 0.00 0.00 0.00 0.00 0.00 0.00 0.00 0.00 0.00 0.00 0.00 0.00 0.00 0.01 0.00 0.00 0.00 0.00 0.00 0.00 0.00 0.00 0.00 0.00 0.00 0.00 0.00 0.00 0.00 0.00 0.00 0.00 0.00 0.00 0.00 0.00 0.00 0.00 0.00 0.00 0.00 0.00 0.00 0.00 0.00 0.00 0.00
0.00 0.00 0.00 0.00 0.00 0.00 0.00 0.00 0.00 0.00 0.00 0.00 0.00 0.00 0.00 0.00 0.00 0.00 0.00 0.00 0.00 0.00 0.00 0.00 0.00 0.00 0.00 0.00 0.00 0.00 0.00 0.00 0.00 0.00 0.00 0.00 0.00 0.00 0.00 0.00 0.00 0.00 0.02 0.01 0.00 0.00 0.00 0.00 0.00 0.00 0.00 0.00 0.00 0.00 0.00 0.00 0.00 0.00 0.00 0.00 0.00 0.00 0.00
0.00 0.00 0.00 0.00 0.00 0.00 0.00 0.00 0.00 0.00 0.00 0.00 0.00 0.00 0.00 0.00 0.00 0.00 0.00 0.00 0.00 0.00 0.00 0.00 0.00 0.00 0.00 0.00 0.00 0.00 0.00 0.00 0.00 0.00 0.00 0.00 0.00 0.00 0.00 0.00 0.00 0.00 0.00 0.00 0.00 0.00 0.00 0.00 0.00 0.00 0.00 0.00 0.00 0.00 0.00 0.00 0.00 0.00 0.00 0.00 0.00 0.00 0.00
0.01 0.00 0.00 0.00 0.00 0.00 0.00 0.00 0.00 0.00 0.00 0.00 0.00 0.00 0.00 0.00 0.00 0.00 0.00 0.00 0.00 0.00 0.00 0.00 0.00 0.00 0.00 0.00 0.00 0.00 0.00 0.00 0.00 0.00 0.00 0.00 0.00 0.00 0.00 0.00 0.00 0.00 0.00 0.00 0.00 0.00 0.00 0.00 0.00 0.00 0.00 0.00 0.00 0.00 0.00 0.00 0.00 0.00 0.00 0.00 0.00 0.00 0.00
0.01 0.00 0.00 0.00 0.00 0.01 0.00 0.00 0.00 0.00 0.00 0.00 0.00 0.00 0.00 0.00 0.00 0.00 0.00 0.00 0.00 0.00 0.00 0.00 0.00 0.00 0.00 0.00 0.00 0.00 0.00 0.00 0.00 0.00 0.00 0.00 0.00 0.00 0.00 0.00 0.00 0.00 0.00 0.00 0.00 0.00 0.00 0.00 0.00 0.00 0.00 0.00 0.00 0.00 0.00 0.00 0.00 0.00 0.00 0.00 0.00 0.00 0.00
0.00 0.00 0.00 0.01 0.02 0.01 0.00 0.00 0.00 0.00 0.00 0.00 0.00 0.00 0.00 0.00 0.00 0.00 0.00 0.00 0.00 0.00 0.00 0.00 0.00 0.00 0.00 0.00 0.00 0.00 0.00 0.00 0.00 0.00 0.00 0.00 0.00 0.00 0.00 0.00 0.00 0.00 0.00 0.00 0.00 0.00 0.00 0.00 0.00 0.00 0.00 0.00 0.00 0.00 0.00 0.00 0.00 0.00 0.00 0.00 0.00 0.00 0.00
0.01 0.01 0.00 0.00 0.00 0.00 0.00 0.00 0.00 0.00 0.00 0.00 0.00 0.00 0.00 0.00 0.00 0.00 0.00 0.00 0.00 0.00 0.00 0.00 0.00 0.00 0.00 0.00 0.00 0.00 0.00 0.00 0.00 0.00 0.00 0.00 0.00 0.00 0.00 0.00 0.00 0.00 0.00 0.00 0.00 0.00 0.00 0.00 0.00 0.00 0.00 0.00 0.00 0.00 0.00 0.00 0.00 0.00 0.00 0.00 0.00 0.00 0.00
0.02 0.00 0.00 0.00 0.00 0.00 0.00 0.00 0.00 0.00 0.00 0.00 0.00 0.00 0.00 0.00 0.00 0.00 0.00 0.00 0.00 0.00 0.00 0.00 0.00 0.00 0.00 0.00 0.00 0.00 0.00 0.00 0.00 0.00 0.00 0.00 0.00 0.00 0.00 0.00 0.00 0.00 0.00 0.00 0.00 0.00 0.00 0.00 0.00 0.00 0.00 0.00 0.00 0.00 0.00 0.00 0.00 0.00 0.00 0.00 0.00 0.00 0.00
0.00 0.00 0.00 0.00 0.00 0.00 0.02 0.02 0.00 0.00 0.00 0.00 0.00 0.00 0.00 0.00 0.00 0.00 0.00 0.00 0.00 0.00 0.00 0.00 0.00 0.00 0.00 0.00 0.00 0.00 0.00 0.00 0.00 0.00 0.00 0.00 0.00 0.00 0.00 0.00 0.00 0.00 0.00 0.00 0.00 0.00 0.00 0.00 0.00 0.00 0.00 0.00 0.00 0.00 0.00 0.00 0.00 0.00 0.00 0.00 0.00 0.00 0.00
0.00 0.00 0.00 0.00 0.00 0.03 0.04 0.01 0.00 0.00 0.00 0.00 0.00 0.00 0.00 0.00 0.00 0.00 0.00 0.00 0.00 0.00 0.00 0.00 0.00 0.00 0.00 0.00 0.00 0.00 0.00 0.00 0.00 0.00 0.00 0.00 0.00 0.00 0.00 0.00 0.00 0.00 0.00 0.00 0.00 0.00 0.00 0.00 0.00 0.00 0.00 0.00 0.00 0.00 0.00 0.00 0.00 0.00 0.00 0.00 0.00 0.00 0.00
0.00 0.00 0.00 0.00 0.00 0.00 0.00 0.00 0.00 0.00 0.00 0.00 0.00 0.00 0.00 0.00 0.00 0.00 0.00 0.00 0.00 0.00 0.00 0.00 0.00 0.00 0.00 0.00 0.00 0.00 0.00 0.00 0.00 0.00 0.00 0.00 0.00 0.00 0.00 0.00 0.00 0.00 0.00 0.00 0.00 0.00 0.00 0.00 0.00 0.00 0.00 0.00 0.00 0.00 0.00 0.00 0.00 0.00 0.00 0.00 0.00 0.00 0.00
0.00 0.00 0.00 0.00 0.00 0.00 0.00 0.00 0.00 0.00 0.00 0.00 0.00 0.00 0.00 0.00 0.00 0.00 0.00 0.00 0.00 0.00 0.00 0.00 0.00 0.00 0.00 0.00 0.00 0.00 0.00 0.00 0.00 0.00 0.00 0.00 0.00 0.00 0.00 0.00 0.00 0.00 0.00 0.00 0.00 0.00 0.00 0.00 0.00 0.00 0.00 0.00 0.00 0.00 0.00 0.00 0.00 0.00 0.00 0.00 0.00 0.00 0.00
0.00 0.00 0.00 0.00 0.00 0.00 0.00 0.00 0.00 0.00 0.00 0.00 0.00 0.00 0.00 0.00 0.00 0.00 0.00 0.00 0.00 0.00 0.00 0.00 0.00 0.00 0.00 0.00 0.00 0.00 0.00 0.00 0.00 0.00 0.00 0.00 0.00 0.00 0.00 0.00 0.00 0.00 0.00 0.00 0.00 0.00 0.00 0.00 0.00 0.00 0.00 0.00 0.00 0.00 0.00 0.00 0.00 0.00 0.00 0.00 0.00 0.00 0.00
0.00 0.00 0.00 0.00 0.00 0.00 0.00 0.00 0.00 0.00 0.00 0.00 0.00 0.00 0.00 0.00 0.00 0.00 0.00 0.00 0.00 0.00 0.00 0.00 0.00 0.00 0.00 0.00 0.00 0.00 0.00 0.00 0.00 0.00 0.00 0.00 0.00 0.00 0.00 0.00 0.00 0.00 0.00 0.00 0.00 0.00 0.00 0.00 0.00 0.00 0.00 0.00 0.00 0.00 0.00 0.00 0.00 0.00 0.00 0.00 0.00 0.00 0.00
0.00 0.00 0.00 0.00 0.00 0.00 0.00 0.00 0.00 0.00 0.00 0.00 0.00 0.00 0.00 0.00 0.00 0.00 0.00 0.00 0.00 0.00 0.00 0.00 0.00 0.00 0.00 0.00 0.00 0.00 0.00 0.00 0.00 0.00 0.00 0.00 0.00 0.00 0.00 0.00 0.00 0.00 0.00 0.00 0.00 0.00 0.00 0.00 0.00 0.00 0.00 0.00 0.00 0.00 0.00 0.00 0.00 0.00 0.00 0.00 0.00 0.00 0.00
0.00 0.00 0.00 0.00 0.00 0.00 0.00 0.00 0.00 0.00 0.00 0.00 0.00 0.00 0.00 0.00 0.00 0.00 0.00 0.00 0.00 0.00 0.00 0.00 0.00 0.00 0.00 0.00 0.00 0.00 0.00 0.00 0.00 0.00 0.00 0.00 0.00 0.00 0.00 0.00 0.00 0.00 0.00 0.00 0.00 0.00 0.00 0.00 0.00 0.00 0.00 0.00 0.00 0.00 0.00 0.00 0.00 0.00 0.00 0.00 0.00 0.00 0.00
0.00 0.00 0.00 0.00 0.00 0.00 0.00 0.00 0.00 0.00 0.00 0.00 0.00 0.00 0.00 0.00 0.00 0.00 0.00 0.00 0.00 0.00 0.00 0.00 0.00 0.00 0.00 0.00 0.00 0.00 0.00 0.00 0.01 0.01 0.01 0.00 0.00 0.00 0.00 0.00 0.00 0.00 0.00 0.00 0.00 0.00 0.00 0.00 0.00 0.00 0.00 0.00 0.00 0.00 0.00 0.00 0.00 0.00 0.00 0.00 0.00 0.00 0.00
0.00 0.00 0.00 0.00 0.00 0.00 0.00 0.00 0.00 0.00 0.00 0.00 0.00 0.00 0.00 0.00 0.00 0.00 0.00 0.00 0.00 0.00 0.00 0.00 0.00 0.00 0.00 0.00 0.00 0.00 0.00 0.00 0.01 0.00 0.01 0.01 0.01 0.00 0.01 0.01 0.00 0.00 0.00 0.01 0.00 0.00 0.00 0.00 0.00 0.00 0.00 0.00 0.00 0.00 0.00 0.00 0.00 0.00 0.00 0.00 0.00 0.00 0.00
0.00 0.00 0.00 0.00 0.00 0.00 0.00 0.00 0.00 0.00 0.00 0.00 0.04 0.02 0.01 0.00 0.00 0.00 0.00 0.00 0.00 0.00 0.00 0.01 0.09 0.01 0.02 0.00 0.01 0.00 0.00 0.00 0.00 0.04 0.03 0.03 0.06 0.24 0.25 0.04 0.06 0.44 0.22 0.02 0.00 0.00 0.00 0.00 0.00 0.00 0.00 0.00 0.00 0.00 0.00 0.00 0.00 0.00 0.00 0.00 0.00 0.00 0.00
0.00 0.00 0.00 0.00 0.00 0.00 0.00 0.00 0.00 0.03 0.00 0.00 0.01 0.01 0.00 0.00 0.01 0.01 0.01 0.01 0.02 0.03 0.01 0.00 0.00 0.00 0.00 0.03 0.01 0.02 0.01 0.01 0.02 0.02 0.01 0.00 0.00 0.00 0.00 0.06 0.03 0.00 0.00 0.00 0.00 0.00 0.00 0.00 0.00 0.00 0.00 0.00 0.00 0.00 0.00 0.00 0.00 0.00 0.00 0.00 0.00 0.00 0.00
0.00 0.00 0.00 0.00 0.00 0.00 0.00 0.00 0.00 0.00 0.00 0.00 0.00 0.00 0.01 0.02 0.02 0.04 0.03 0.02 0.02 0.02 0.01 0.02 0.05 0.01 0.00 0.00 0.00 0.01 0.02 0.01 0.01 0.01 0.00 0.00 0.00 0.00 0.00 0.00 0.00 0.00 0.00 0.00 0.00 0.00 0.00 0.00 0.00 0.00 0.00 0.00 0.00 0.00 0.00 0.00 0.00 0.00 0.00 0.00 0.00 0.00 0.00
0.00 0.00 0.00 0.00 0.00 0.00 0.00 0.00 0.00 0.00 0.00 0.00 0.00 0.16 0.03 0.03 0.08 0.06 0.05 0.05 0.04 0.03 0.02 0.02 0.02 0.02 0.01 0.00 0.00 0.01 0.15 0.00 0.00 0.00 0.00 0.00 0.00 0.00 0.00 0.00 0.00 0.00 0.00 0.00 0.11 0.03 0.03 0.00 0.00 0.00 0.00 0.00 0.00 0.00 0.00 0.00 0.00 0.00 0.00 0.00 0.00 0.00 0.00
0.00 0.00 0.00 0.00 0.00 0.00 0.00 0.00 0.00 0.00 0.00 0.00 0.00 0.00 0.00 0.01 0.02 0.07 0.10 0.07 0.06 0.22 0.18 0.11 0.09 0.07 0.01 0.00 0.00 0.02 0.02 0.01 0.00 0.00 0.01 0.01 0.00 0.00 0.00 0.00 0.00 0.00 0.00 0.00 0.01 0.08 0.03 0.01 0.00 0.00 0.00 0.00 0.00 0.00 0.00 0.00 0.00 0.00 0.00 0.00 0.00 0.00 0.00
0.00 0.00 0.00 0.00 0.00 0.00 0.00 0.00 0.00 0.00 0.00 0.00 0.00 0.00 0.00 0.00 0.00 0.00 0.00 0.10 0.09 0.04 0.05 0.02 0.04 0.03 0.02 0.01 0.04 0.05 0.00 0.00 0.00 0.00 0.00 0.00 0.00 0.00 0.00 0.00 0.01 0.00 0.00 0.00 0.00 0.00 0.00 0.00 0.00 0.00 0.00 0.00 0.00 0.00 0.00 0.00 0.00 0.00 0.00 0.00 0.00 0.00 0.00
0.00 0.00 0.00 0.00 0.00 0.00 0.00 0.00 0.00 0.00 0.00 0.00 0.00 0.00 0.00 0.00 0.00 0.00 0.00 0.00 0.01 0.06 0.01 0.01 0.01 0.04 0.03 0.01 0.00 0.00 0.00 0.00 0.00 0.00 0.00 0.00 0.00 0.00 0.00 0.00 0.00 0.00 0.00 0.00 0.00 0.00 0.00 0.00 0.00 0.00 0.00 0.00 0.00 0.00 0.00 0.00 0.00 0.00 0.00 0.00 0.00 0.00 0.00
0.00 0.00 0.00 0.00 0.00 0.00 0.00 0.00 0.00 0.00 0.00 0.00 0.00 0.00 0.00 0.00 0.00 0.08 0.15 0.04 0.00 0.00 0.02 0.12 0.04 0.02 0.01 0.00 0.00 0.00 0.00 0.00 0.00 0.00 0.00 0.00 0.00 0.00 0.00 0.00 0.00 0.00 0.00 0.00 0.00 0.00 0.00 0.00 0.00 0.00 0.00 0.00 0.00 0.00 0.00 0.00 0.00 0.00 0.00 0.00 0.00 0.00 0.00
0.00 0.00 0.00 0.00 0.00 0.00 0.00 0.00 0.00 0.00 0.00 0.00 0.00 0.00 0.00 0.00 0.00 0.00 0.00 0.00 0.00 0.59 0.47 0.09 0.00 0.00 0.00 0.00 0.00 0.00 0.00 0.00 0.00 0.00 0.00 0.00 0.00 0.00 0.00 0.00 0.00 0.00 0.00 0.00 0.00 0.00 0.00 0.00 0.00 0.00 0.00 0.00 0.00 0.00 0.00 0.00 0.00 0.00 0.00 0.00 0.00 0.00 0.00
0.00 0.00 0.00 0.00 0.00 0.00 0.00 0.00 0.00 0.00 0.00 0.00 0.00 0.00 0.00 0.00 0.00 0.00 0.00 0.00 0.01 0.03 0.01 0.05 0.00 0.00 0.00 0.00 0.00 0.00 0.00 0.00 0.00 0.00 0.00 0.00 0.00 0.00 0.00 0.00 0.00 0.00 0.00 0.00 0.00 0.00 0.00 0.00 0.00 0.00 0.00 0.00 0.00 0.00 0.00 0.00 0.00 0.00 0.00 0.00 0.00 0.00 0.00
0.00 0.00 0.00 0.00 0.00 0.00 0.00 0.00 0.00 0.00 0.00 0.00 0.00 0.00 0.00 0.00 0.00 0.00 0.01 0.02 0.04 0.09 0.14 0.01 0.00 0.00 0.00 0.00 0.00 0.00 0.00 0.00 0.00 0.00 0.00 0.00 0.00 0.00 0.00 0.00 0.00 0.00 0.00 0.00 0.00 0.00 0.00 0.00 0.00 0.00 0.00 0.00 0.00 0.00 0.00 0.00 0.00 0.00 0.00 0.00 0.00 0.00 0.00
0.00 0.00 0.00 0.00 0.00 0.00 0.00 0.00 0.00 0.00 0.00 0.00 0.00 0.00 0.00 0.00 0.00 0.00 0.00 0.00 0.00 0.00 0.00 0.00 0.00 0.00 0.00 0.00 0.00 0.00 0.00 0.00 0.00 0.00 0.00 0.00 0.00 0.00 0.00 0.00 0.00 0.00 0.00 0.00 0.00 0.00 0.00 0.00 0.00 0.00 0.00 0.00 0.00 0.00 0.00 0.00 0.00 0.00 0.00 0.00 0.00 0.00 0.00
0.00 0.00 0.00 0.00 0.00 0.00 0.00 0.00 0.00 0.00 0.00 0.00 0.00 0.00 0.00 0.00 0.00 0.00 0.00 0.00 0.00 0.00 0.00 0.00 0.00 0.00 0.00 0.00 0.00 0.00 0.00 0.00 0.00 0.00 0.00 0.00 0.00 0.00 0.00 0.00 0.00 0.00 0.00 0.00 0.00 0.00 0.00 0.00 0.00 0.00 0.00 0.00 0.00 0.00 0.00 0.00 0.00 0.00 0.00 0.00 0.00 0.00 0.00
0.00 0.00 0.00 0.00 0.00 0.00 0.01 0.00 0.00 0.00 0.00 0.00 0.00 0.00 0.00 0.00 0.00 0.00 0.00 0.00 0.00 0.00 0.00 0.00 0.00 0.00 0.00 0.00 0.00 0.00 0.00 0.00 0.00 0.00 0.00 0.00 0.00 0.00 0.00 0.00 0.00 0.00 0.00 0.00 0.00 0.00 0.00 0.00 0.00 0.00 0.00 0.00 0.00 0.00 0.00 0.00 0.00 0.00 0.00 0.00 0.00 0.00 0.00
0.00 0.00 0.00 0.00 0.00 0.00 0.00 0.00 0.01 0.01 0.00 0.00 0.00 0.00 0.00 0.00 0.00 0.00 0.00 0.00 0.00 0.00 0.00 0.00 0.00 0.00 0.00 0.00 0.00 0.00 0.00 0.00 0.00 0.00 0.00 0.00 0.00 0.00 0.00 0.00 0.00 0.00 0.00 0.00 0.00 0.00 0.00 0.00 0.00 0.00 0.00 0.00 0.00 0.00 0.00 0.00 0.00 0.00 0.00 0.00 0.00 0.00 0.00
0.00 0.00 0.00 0.00 0.00 0.00 0.00 0.00 0.00 0.01 0.00 0.01 0.00 0.00 0.00 0.01 0.01 0.01 0.00 0.00 0.00 0.00 0.00 0.00 0.00 0.00 0.00 0.00 0.00 0.00 0.00 0.00 0.00 0.00 0.00 0.00 0.00 0.00 0.00 0.00 0.00 0.00 0.00 0.00 0.00 0.00 0.00 0.00 0.00 0.00 0.00 0.00 0.00 0.00 0.00 0.00 0.00 0.00 0.00 0.00 0.00 0.00 0.00
0.00 0.00 0.00 0.00 0.00 0.00 0.00 0.00 0.00 0.00 0.00 0.00 0.00 0.00 0.00 0.00 0.00 0.00 0.00 0.00 0.00 0.00 0.00 0.00 0.00 0.00 0.00 0.00 0.00 0.00 0.00 0.00 0.00 0.00 0.00 0.00 0.00 0.00 0.00 0.00 0.00 0.00 0.00 0.00 0.00 0.00 0.00 0.00 0.00 0.00 0.00 0.00 0.00 0.00 0.00 0.00 0.00 0.00 0.00 0.00 0.00 0.00 0.00
MSLP
1018.36 1019.00 1019.24 1019.36 1019.44 1019.52 1019.68 1019.80 1019.76 1019.76 1019.72 1019.68 1019.72 1019.80 1019.80 1019.80 1019.84 1019.88 1019.96 1020.00 1020.04 1020.04 1020.00 1020.00 1020.08 1020.12 1020.08 1020.12 1020.24 1020.36 1020.48 1020.68 1020.84 1021.04 1021.32 1021.48 1021.60 1022.20 1022.00 1021.88 1021.84 1021.80 1021.76 1021.96 1021.84 1022.08 1022.56 1023.68 1024.12 1023.68 1023.56 1023.48 1023.36 1023.40 1023.40 1023.44 1023.40 1023.40 1023.36 1023.20 1023.08 1023.08 1023.08
1018.60 1019.00 1019.24 1019.40 1019.64 1019.72 1019.80 1019.92 1019.84 1019.80 1019.80 1019.88 1019.84 1019.88 1019.92 1019.88 1019.88 1019.92 1019.96 1019.96 1019.96 1020.04 1020.04 1020.12 1020.24 1020.24 1020.28 1020.36 1020.40 1020.48 1020.52 1020.64 1020.68 1020.76 1021.00 1021.28 1021.28 1021.84 1022.00 1022.00 1021.76 1021.72 1021.88 1022.00 1022.12 1021.96 1022.20 1023.00 1023.52 1023.76 1024.04 1023.76 1023.56 1023.72 1023.72 1023.64 1023.60 1023.56 1023.48 1023.44 1023.28 1023.20 1023.24
1018.96 1019.20 1019.24 1019.56 1019.76 1019.80 1019.92 1020.08 1020.00 1019.88 1019.80 1019.88 1019.96 1019.96 1019.96 1019.92 1019.96 1019.96 1019.96 1020.00 1020.00 1020.04 1020.08 1020.16 1020.32 1020.40 1020.44 1020.48 1020.48 1020.44 1020.52 1020.68 1020.72 1020.80 1020.92 1021.00 1021.04 1021.32 1021.28 1021.48 1021.76 1021.96 1021.96 1022.04 1022.04 1022.04 1022.08 1022.08 1022.96 1023.44 1023.44 1023.64 1024.08 1024.28 1023.96 1023.80 1023.68 1023.60 1023.52 1023.52 1023.44 1023.36 1023.40
1018.92 1019.08 1019.36 1019.68 1019.80 1019.88 1020.00 1020.12 1020.08 1020.04 1019.92 1019.96 1020.00 1020.04 1020.04 1020.04 1020.08 1020.08 1020.12 1020.16 1020.20 1020.28 1020.36 1020.36 1020.44 1020.44 1020.56 1020.68 1020.76 1020.76 1020.80 1020.80 1020.84 1021.00 1021.20 1021.20 1021.32 1021.48 1021.56 1021.40 1021.40 1021.48 1021.64 1021.92 1022.00 1021.92 1022.04 1022.52 1022.80 1023.28 1023.20 1023.20 1023.76 1024.32 1024.32 1024.00 1023.76 1023.60 1023.56 1023.60 1023.64 1023.72 1023.64
1018.64 1018.88 1019.08 1019.44 1019.64 1019.84 1020.04 1020.20 1020.20 1020.12 1020.08 1020.12 1020.12 1020.12 1020.24 1020.24 1020.20 1020.28 1020.32 1020.36 1020.40 1020.48 1020.52 1020.52 1020.60 1020.64 1020.76 1020.80 1020.84 1020.84 1020.92 1020.96 1020.96 1021.00 1021.16 1021.44 1021.44 1021.48 1021.60 1021.44 1021.48 1021.52 1021.52 1021.60 1021.76 1021.76 1021.88 1022.16 1022.36 1022.92 1023.24 1023.28 1023.36 1023.72 1024.04 1024.04 1023.80 1023.80 1023.84 1023.80 1023.80 1023.88 1023.96
1018.72 1018.84 1018.96 1019.28 1019.52 1019.76 1020.04 1020.20 1020.16 1020.08 1020.12 1020.20 1020.28 1020.28 1020.40 1020.44 1020.40 1020.48 1020.52 1020.56 1020.64 1020.72 1020.76 1020.76 1020.84 1020.84 1020.84 1020.84 1020.92 1021.00 1021.00 1021.00 1021.00 1020.96 1021.12 1021.36 1021.36 1021.48 1021.68 1021.72 1021.60 1021.64 1021.84 1021.88 1021.84 1021.96 1022.00 1022.04 1022.32 1022.96 1023.20 1023.00 1023.60 1023.84 1023.92 1023.80 1024.04 1023.92 1023.96 1024.08 1024.04 1024.12 1024.08
1018.76 1018.80 1018.88 1019.20 1019.56 1019.72 1019.92 1020.08 1020.04 1019.96 1020.00 1020.20 1020.36 1020.44 1020.52 1020.52 1020.56 1020.64 1020.76 1020.88 1020.96 1021.04 1021.08 1021.08 1021.12 1021.12 1021.04 1020.92 1021.00 1021.08 1021.24 1021.28 1021.24 1021.28 1021.40 1021.52 1021.60 1021.72 1021.68 1021.76 1021.84 1022.00 1022.16 1022.16 1022.16 1022.16 1022.28 1022.32 1022.48 1022.80 1023.28 1023.40 1023.40 1023.68 1023.72 1023.72 1023.76 1023.80 1024.24 1024.24 1024.28 1024.36 1024.40
1019.08 1019.00 1018.88 1018.84 1019.20 1019.76 1019.92 1020.00 1020.08 1020.00 1019.96 1020.32 1020.44 1020.60 1020.64 1020.64 1020.76 1020.84 1020.96 1021.08 1021.24 1021.36 1021.40 1021.40 1021.44 1021.40 1021.32 1021.16 1021.24 1021.44 1021.52 1021.52 1021.52 1021.52 1021.68 1021.76 1021.92 1021.96 1021.96 1022.00 1022.20 1022.28 1022.36 1022.32 1022.24 1022.20 1022.12 1022.24 1022.32 1022.64 1022.84 1023.60 1023.92 1023.72 1023.88 1023.88 1024.04 1024.32 1024.40 1024.56 1024.52 1024.56 1024.68
1018.88 1019.04 1019.08 1019.08 1019.28 1019.36 1019.72 1019.84 1020.08 1020.08 1020.04 1020.32 1020.52 1020.60 1020.72 1020.72 1020.84 1020.96 1021.04 1021.28 1021.44 1021.56 1021.64 1021.64 1021.64 1021.56 1021.56 1021.48 1021.56 1021.68 1021.80 1021.80 1021.80 1021.80 1021.88 1021.96 1022.16 1022.24 1022.28 1022.32 1022.32 1022.52 1022.52 1022.52 1022.40 1022.48 1022.40 1022.44 1022.52 1022.64 1022.56 1022.72 1023.32 1024.12 1024.00 1024.12 1024.12 1024.68 1024.52 1024.40 1024.64 1024.84 1024.80
1018.36 1018.36 1018.56 1019.00 1019.24 1019.48 1019.64 1019.88 1020.00 1020.08 1020.08 1020.20 1020.40 1020.56 1020.68 1020.76 1020.88 1020.96 1021.08 1021.28 1021.48 1021.60 1021.72 1021.84 1021.88 1021.88 1021.84 1021.76 1021.84 1021.92 1021.96 1021.96 1021.88 1022.00 1022.00 1022.08 1022.32 1022.32 1022.36 1022.44 1022.48 1022.60 1022.72 1022.76 1022.72 1022.76 1022.76 1022.72 1022.64 1022.64 1022.48 1022.56 1022.64 1023.28 1023.92 1024.20 1024.52 1024.52 1024.80 1024.68 1024.52 1024.92 1024.96
1018.24 1018.44 1018.68 1018.92 1019.16 1019.32 1019.56 1019.80 1020.08 1020.16 1020.04 1020.08 1020.24 1020.48 1020.60 1020.76 1020.92 1021.04 1021.12 1021.32 1021.48 1021.60 1021.76 1021.88 1021.96 1022.04 1022.04 1022.12 1022.20 1022.24 1022.28 1022.24 1022.24 1022.24 1022.28 1022.32 1022.44 1022.44 1022.52 1022.52 1022.56 1022.68 1022.80 1022.76 1022.88 1022.96 1022.92 1022.88 1022.84 1022.80 1022.80 1022.76 1022.60 1022.92 1023.28 1023.72 1024.64 1024.64 1024.76 1024.96 1024.92 1024.96 1025.12
1018.24 1018.28 1018.64 1018.76 1019.00 1019.20 1019.36 1019.56 1019.92 1019.96 1020.08 1020.08 1020.16 1020.44 1020.60 1020.72 1020.92 1021.12 1021.20 1021.36 1021.52 1021.68 1021.80 1021.92 1022.00 1022.08 1022.08 1022.20 1022.32 1022.44 1022.52 1022.40 1022.44 1022.60 1022.64 1022.68 1022.76 1022.72 1022.76 1022.80 1022.76 1022.84 1022.92 1023.00 1023.08 1023.08 1023.12 1023.04 1023.04 1023.00 1023.08 1023.00 1023.04 1023.08 1023.28 1023.48 1024.12 1024.88 1024.84 1024.96 1025.24 1025.32 1025.32
1018.16 1018.40 1018.44 1018.60 1018.88 1019.04 1019.20 1019.40 1019.72 1019.92 1020.00 1020.08 1020.12 1020.32 1020.52 1020.72 1020.92 1021.12 1021.24 1021.40 1021.56 1021.68 1021.84 1021.96 1022.04 1022.12 1022.16 1022.24 1022.32 1022.40 1022.60 1022.56 1022.60 1022.76 1022.84 1022.88 1022.88 1022.88 1022.96 1023.00 1023.04 1023.04 1023.08 1023.04 1023.12 1023.24 1023.32 1023.32 1023.24 1023.20 1023.24 1023.36 1023.44 1023.48 1023.44 1023.48 1023.84 1024.72 1025.12 1025.12 1025.28 1025.40 1025.52
1018.24 1018.40 1018.40 1018.48 1018.80 1019.08 1019.28 1019.56 1019.80 1019.88 1019.84 1020.04 1020.16 1020.32 1020.48 1020.68 1020.88 1021.04 1021.20 1021.36 1021.52 1021.72 1021.88 1022.08 1022.16 1022.20 1022.24 1022.40 1022.48 1022.60 1022.68 1022.60 1022.64 1022.76 1022.84 1023.00 1022.96 1022.88 1022.88 1023.00 1023.16 1023.24 1023.16 1023.12 1023.24 1023.32 1023.36 1023.44 1023.48 1023.44 1023.44 1023.48 1023.64 1023.64 1023.60 1023.76 1024.04 1024.72 1025.28 1025.44 1025.32 1025.40 1025.60
1018.20 1018.24 1018.28 1018.48 1018.80 1019.08 1019.40 1019.60 1019.88 1020.00 1019.88 1019.92 1020.08 1020.28 1020.48 1020.72 1020.88 1021.00 1021.12 1021.28 1021.44 1021.56 1021.76 1021.96 1022.12 1022.16 1022.24 1022.40 1022.60 1022.72 1022.76 1022.72 1022.76 1022.88 1022.92 1022.92 1023.04 1023.04 1023.04 1023.04 1023.12 1023.28 1023.20 1023.24 1023.36 1023.24 1023.40 1023.44 1023.44 1023.48 1023.56 1023.52 1023.68 1023.88 1023.84 1023.76 1024.04 1024.20 1024.84 1025.24 1025.24 1025.36 1025.44
1018.16 1018.24 1018.32 1018.44 1018.76 1019.04 1019.24 1019.44 1019.72 1019.88 1020.04 1020.08 1020.16 1020.32 1020.44 1020.64 1020.84 1020.96 1021.12 1021.28 1021.36 1021.52 1021.68 1021.88 1022.08 1022.16 1022.32 1022.40 1022.48 1022.64 1022.72 1022.76 1022.76 1022.88 1022.92 1022.96 1023.00 1023.12 1023.20 1023.20 1023.28 1023.40 1023.48 1023.44 1023.48 1023.44 1023.52 1023.48 1023.40 1023.56 1023.80 1023.76 1023.88 1024.00 1023.96 1023.84 1023.96 1024.28 1024.52 1024.92 1025.20 1025.08 1025.32
1018.04 1018.16 1018.28 1018.44 1018.72 1018.96 1019.16 1019.36 1019.44 1019.64 1019.92 1020.08 1020.12 1020.32 1020.44 1020.48 1020.60 1020.80 1021.00 1021.16 1021.36 1021.56 1021.72 1021.88 1022.00 1022.08 1022.20 1022.36 1022.52 1022.68 1022.88 1022.96 1022.96 1022.84 1022.80 1022.84 1022.96 1023.16 1023.20 1023.32 1023.40 1023.52 1023.52 1023.56 1023.60 1023.68 1023.64 1023.64 1023.64 1023.76 1023.96 1024.04 1024.12 1024.20 1024.20 1024.16 1024.00 1024.08 1024.36 1024.56 1025.12 1024.80 1025.12
1017.92 1018.04 1018.20 1018.44 1018.72 1018.88 1019.04 1019.20 1019.32 1019.48 1019.72 1019.96 1019.96 1020.12 1020.40 1020.44 1020.48 1020.56 1020.76 1020.88 1021.12 1021.36 1021.60 1021.80 1022.00 1022.12 1022.24 1022.24 1022.28 1022.40 1022.56 1022.76 1022.92 1023.00 1023.00 1023.00 1023.04 1023.08 1023.16 1023.24 1023.32 1023.52 1023.56 1023.60 1023.76 1023.68 1023.72 1023.80 1023.64 1023.76 1023.84 1023.88 1023.92 1024.16 1024.24 1024.12 1024.04 1024.04 1024.16 1024.36 1024.88 1025.16 1025.16
1017.92 1018.00 1018.20 1018.44 1018.64 1018.76 1018.92 1019.04 1019.20 1019.40 1019.52 1019.80 1020.00 1019.96 1020.08 1020.28 1020.40 1020.56 1020.68 1020.88 1021.08 1021.32 1021.52 1021.68 1021.84 1021.96 1022.04 1022.12 1022.16 1022.28 1022.32 1022.44 1022.60 1022.76 1022.96 1023.12 1023.16 1023.20 1023.24 1023.24 1023.28 1023.48 1023.64 1023.64 1023.68 1023.68 1023.72 1023.72 1023.76 1023.68 1023.72 1023.72 1023.84 1024.12 1024.28 1024.36 1024.32 1024.28 1024.24 1024.40 1024.48 1024.92 1025.16
1017.88 1017.96 1018.12 1018.32 1018.44 1018.60 1018.76 1018.92 1019.08 1019.28 1019.36 1019.56 1019.84 1019.96 1019.92 1019.96 1020.12 1020.28 1020.60 1020.80 1021.00 1021.16 1021.36 1021.52 1021.68 1021.80 1021.80 1021.88 1021.96 1022.08 1022.24 1022.32 1022.44 1022.56 1022.68 1022.88 1023.12 1023.20 1023.24 1023.28 1023.48 1023.72 1023.88 1023.80 1023.68 1023.68 1023.72 1023.72 1023.68 1023.68 1023.80 1024.00 1023.96 1024.08 1024.16 1024.16 1024.20 1024.28 1024.36 1024.56 1024.80 1024.84 1024.84
1017.84 1017.92 1018.00 1018.16 1018.32 1018.40 1018.48 1018.68 1018.84 1019.04 1019.24 1019.36 1019.48 1019.56 1019.72 1019.76 1020.00 1020.12 1020.40 1020.68 1020.88 1021.00 1021.12 1021.28 1021.40 1021.60 1021.72 1021.80 1021.92 1022.00 1022.08 1022.20 1022.24 1022.32 1022.48 1022.60 1022.80 1022.92 1022.96 1023.08 1023.24 1023.48 1023.64 1023.60 1023.48 1023.32 1023.44 1023.52 1023.64 1023.68 1023.80 1023.96 1024.08 1024.20 1024.16 1024.28 1024.28 1024.16 1024.20 1024.28 1024.28 1024.44 1024.64
1017.72 1017.80 1017.96 1018.08 1018.20 1018.32 1018.32 1018.40 1018.56 1018.76 1018.92 1019.00 1019.12 1019.20 1019.24 1019.40 1019.72 1019.96 1020.24 1020.56 1020.88 1021.00 1021.04 1021.24 1021.44 1021.48 1021.56 1021.68 1021.76 1021.84 1021.92 1022.00 1022.12 1022.20 1022.28 1022.40 1022.56 1022.60 1022.60 1022.72 1022.84 1022.96 1023.16 1023.24 1023.20 1023.16 1023.12 1023.20 1023.40 1023.56 1023.92 1023.92 1024.04 1023.96 1024.04 1024.08 1024.16 1024.16 1024.16 1024.08 1024.16 1024.28 1024.24
1017.72 1017.76 1017.92 1018.04 1018.08 1018.12 1018.24 1018.36 1018.52 1018.72 1018.84 1018.88 1019.08 1019.24 1019.36 1019.56 1019.64 1019.68 1019.92 1020.36 1020.72 1021.00 1021.08 1021.24 1021.32 1021.44 1021.56 1021.56 1021.56 1021.64 1021.84 1021.88 1021.92 1021.96 1022.04 1022.16 1022.28 1022.28 1022.32 1022.40 1022.48 1022.76 1023.00 1023.20 1023.24 1023.36 1023.48 1023.52 1023.44 1023.36 1023.68 1023.88 1023.80 1023.84 1023.92 1024.00 1024.00 1024.00 1024.04 1024.04 1024.16 1024.40 1024.28
1017.80 1017.80 1017.88 1017.96 1018.04 1018.16 1018.28 1018.48 1018.68 1018.84 1018.96 1019.08 1019.24 1019.44 1019.44 1019.40 1019.32 1019.48 1019.68 1019.80 1020.16 1020.60 1020.92 1021.12 1021.32 1021.48 1021.64 1021.80 1021.72 1021.64 1021.76 1021.72 1021.64 1021.64 1021.80 1021.92 1021.84 1021.84 1021.92 1022.04 1022.16 1022.44 1022.80 1023.04 1023.32 1023.40 1023.44 1023.68 1023.88 1023.80 1023.84 1023.92 1023.92 1023.72 1023.80 1024.04 1024.12 1024.24 1024.20 1024.32 1024.64 1024.64 1024.52
1017.96 1017.96 1018.00 1018.08 1018.16 1018.24 1018.40 1018.64 1018.76 1018.84 1018.92 1019.04 1019.08 1019.20 1019.24 1019.20 1019.32 1019.40 1019.56 1019.72 1019.80 1019.84 1020.16 1020.52 1020.92 1021.12 1021.44 1021.80 1022.12 1021.96 1021.76 1021.60 1021.48 1021.44 1021.48 1021.56 1021.56 1021.60 1021.68 1021.84 1022.00 1022.16 1022.32 1022.44 1022.72 1023.28 1023.68 1024.08 1024.16 1024.20 1024.36 1024.52 1024.56 1024.48 1024.32 1024.00 1024.08 1024.44 1024.60 1024.48 1024.64 1024.52 1024.48
1017.96 1018.04 1018.08 1018.16 1018.24 1018.28 1018.36 1018.44 1018.56 1018.68 1018.76 1018.72 1018.88 1019.08 1019.04 1019.16 1019.32 1019.44 1019.48 1019.44 1019.44 1019.40 1019.56 1020.00 1020.48 1020.96 1021.40 1021.80 1021.92 1022.24 1021.80 1021.44 1021.40 1021.36 1021.40 1021.48 1021.56 1021.60 1021.60 1021.68 1021.80 1022.00 1022.08 1022.56 1022.60 1022.64 1023.16 1024.04 1024.48 1024.52 1024.60 1024.80 1024.92 1024.88 1024.80 1024.80 1024.76 1024.60 1024.56 1024.60 1024.56 1024.52 1024.56
1017.92 1018.08 1018.24 1018.32 1018.40 1018.32 1018.36 1018.36 1018.40 1018.48 1018.56 1018.76 1018.88 1018.88 1018.96 1019.08 1019.16 1019.24 1019.28 1019.36 1019.36 1019.40 1019.52 1020.20 1020.64 1021.00 1021.28 1021.56 1021.84 1022.12 1021.84 1021.56 1021.40 1021.36 1021.40 1021.48 1021.56 1021.56 1021.60 1021.60 1021.56 1021.64 1021.96 1022.20 1022.24 1022.48 1022.92 1023.48 1024.00 1024.16 1024.28 1024.36 1024.64 1025.00 1025.08 1025.12 1025.16 1025.20 1025.04 1024.76 1024.64 1024.56 1024.96
1017.96 1017.96 1018.12 1018.32 1018.44 1018.48 1018.48 1018.48 1018.48 1018.44 1018.48 1018.56 1018.68 1018.76 1018.80 1018.84 1018.92 1019.00 1019.08 1019.08 1019.16 1019.52 1020.04 1020.48 1020.64 1020.92 1021.28 1021.56 1021.64 1021.88 1021.60 1021.60 1021.52 1021.56 1021.76 1021.84 1021.84 1021.76 1021.76 1021.76 1021.76 1021.76 1022.04 1022.16 1022.28 1022.48 1022.80 1023.16 1023.44 1023.80 1024.12 1024.44 1024.60 1024.72 1024.88 1024.96 1025.04 1025.04 1025.12 1025.08 1025.04 1025.16 1025.36
1018.24 1018.20 1018.20 1018.28 1018.36 1018.36 1018.48 1018.56 1018.52 1018.40 1018.48 1018.36 1018.48 1018.56 1018.68 1018.68 1018.80 1018.96 1019.08 1019.28 1019.44 1019.64 1019.64 1020.24 1020.72 1021.20 1021.28 1021.24 1021.48 1021.28 1021.24 1021.48 1021.64 1021.80 1022.00 1022.00 1021.92 1021.84 1021.84 1021.92 1021.96 1022.12 1022.28 1022.48 1022.88 1022.88 1022.80 1022.92 1023.28 1023.72 1024.20 1024.52 1024.76 1025.04 1025.44 1026.00 1026.08 1025.92 1025.68 1025.56 1025.52 1025.56 1025.56
1017.88 1018.00 1018.16 1018.24 1018.20 1018.24 1018.40 1018.52 1018.48 1018.32 1018.36 1018.32 1018.48 1018.64 1018.72 1018.88 1018.84 1018.96 1019.20 1019.28 1019.40 1019.56 1020.04 1020.68 1020.84 1020.88 1020.72 1020.92 1020.96 1020.92 1021.28 1021.40 1021.76 1022.04 1022.24 1022.20 1022.04 1022.12 1022.16 1022.08 1022.08 1022.24 1022.40 1022.76 1023.24 1023.16 1023.20 1023.16 1023.36 1023.80 1024.16 1024.56 1024.88 1025.08 1025.48 1025.92 1026.20 1026.20 1026.20 1026.24 1026.28 1026.32 1026.32
1018.32 1018.24 1018.28 1018.00 1017.84 1017.96 1018.08 1018.16 1018.20 1018.36 1018.16 1018.24 1018.32 1018.56 1019.04 1019.36 1019.32 1019.16 1019.28 1019.36 1019.36 1019.88 1020.16 1020.56 1020.48 1020.48 1020.64 1020.80 1020.76 1020.88 1021.12 1021.40 1021.92 1022.20 1022.36 1022.44 1022.32 1022.48 1022.88 1022.88 1022.48 1022.40 1022.64 1023.24 1023.64 1023.56 1023.52 1023.32 1023.40 1023.84 1024.20 1024.60 1024.88 1025.04 1025.44 1025.76 1025.84 1026.12 1026.36 1026.36 1026.32 1026.32 1026.32
1018.12 1018.08 1017.88 1017.88 1017.96 1017.92 1018.00 1018.04 1018.20 1018.44 1018.20 1018.04 1018.40 1018.76 1018.88 1018.84 1019.08 1019.12 1019.24 1019.36 1019.60 1019.36 1019.72 1020.40 1020.68 1020.64 1020.84 1021.00 1020.92 1020.80 1021.00 1021.36 1021.80 1022.08 1022.20 1022.52 1022.60 1022.64 1023.00 1023.32 1023.24 1022.96 1023.16 1023.68 1023.76 1023.76 1023.72 1023.48 1023.56 1023.88 1024.16 1024.28 1024.48 1024.80 1025.24 1025.52 1025.68 1025.72 1025.72 1025.72 1025.72 1025.80 1025.88
1018.12 1018.16 1018.00 1017.96 1017.96 1017.92 1018.08 1018.20 1018.32 1018.36 1018.44 1018.36 1018.56 1018.64 1018.68 1018.64 1018.88 1019.24 1019.44 1019.44 1019.68 1019.68 1019.76 1020.20 1020.72 1020.92 1021.04 1021.16 1021.04 1020.76 1020.84 1021.12 1021.64 1022.08 1022.16 1022.32 1022.56 1022.92 1023.08 1023.40 1023.96 1024.12 1023.96 1024.00 1024.08 1024.08 1024.00 1023.84 1023.72 1023.96 1024.00 1024.04 1024.32 1024.96 1025.40 1025.64 1025.88 1025.76 1025.76 1025.76 1025.68 1025.72 1025.68
1017.96 1018.04 1018.16 1018.08 1017.96 1017.96 1018.04 1018.00 1018.12 1018.24 1018.32 1018.48 1018.64 1018.92 1019.16 1019.16 1019.20 1019.44 1019.52 1019.60 1019.64 1019.92 1020.08 1020.16 1020.84 1021.08 1021.20 1021.28 1021.32 1021.00 1020.84 1021.12 1021.52 1021.80 1022.08 1022.28 1022.36 1022.72 1023.00 1023.44 1023.92 1024.52 1024.24 1024.24 1024.28 1024.36 1024.44 1024.44 1024.32 1024.24 1024.32 1024.52 1025.04 1025.48 1025.68 1025.60 1026.24 1026.24 1025.72 1025.72 1025.64 1025.48 1025.32
1018.12 1018.12 1018.20 1018.28 1018.28 1017.92 1017.76 1017.96 1018.00 1018.12 1018.16 1018.36 1018.76 1019.12 1019.24 1019.12 1019.20 1019.56 1019.76 1019.84 1020.00 1020.12 1020.44 1020.60 1020.60 1021.16 1021.16 1021.28 1021.40 1021.36 1020.96 1021.32 1021.48 1021.68 1022.00 1022.24 1022.52 1022.84 1023.20 1023.56 1024.08 1024.80 1024.64 1024.64 1024.68 1024.76 1024.92 1024.96 1025.00 1024.92 1025.64 1025.96 1026.12 1026.08 1025.84 1025.76 1025.68 1025.60 1025.52 1025.44 1025.32 1025.24 1025.08
1018.08 1018.00 1017.96 1018.04 1018.24 1018.20 1018.28 1018.24 1018.20 1018.24 1018.20 1018.32 1018.44 1018.88 1019.28 1019.48 1019.60 1019.84 1020.08 1020.20 1020.36 1020.52 1020.60 1020.80 1021.08 1021.08 1021.32 1021.36 1021.52 1021.60 1021.48 1021.68 1021.96 1021.60 1021.80 1022.28 1022.72 1023.20 1023.56 1024.00 1024.72 1025.00 1024.88 1024.96 1025.00 1025.16 1025.24 1025.40 1025.44 1025.88 1026.20 1026.20 1026.24 1026.20 1025.88 1025.52 1025.72 1025.56 1025.40 1025.36 1025.36 1025.16 1025.04
1017.96 1017.84 1017.68 1017.68 1017.96 1018.08 1018.32 1018.36 1018.36 1018.28 1018.16 1018.04 1018.40 1018.84 1019.28 1019.36 1019.36 1019.72 1020.20 1020.56 1020.72 1020.72 1020.76 1020.72 1021.40 1021.56 1021.64 1021.72 1021.72 1021.76 1021.92 1022.04 1022.08 1021.76 1021.96 1022.36 1022.84 1023.32 1023.64 1024.08 1024.72 1025.12 1025.16 1025.32 1025.44 1025.48 1025.56 1025.60 1025.84 1026.20 1026.16 1026.24 1026.16 1026.00 1025.60 1025.52 1025.40 1025.48 1025.56 1025.40 1025.28 1025.08 1025.00
Thickness
5619 5615 5613 5612 5611 5610 5609 5608 5608 5608 5608 5607 5607 5606 5606 5605 5605 5605 5605 5605 5606 5606 5608 5608 5608 5608 5608 5608 5607 5607 5607 5606 5605 5603 5601 5600 5599 5598 5598 5600 5602 5603 5603 5602 5600 5600 5597 5590 5588 5590 5591 5593 5593 5593 5592 5592 5592 5592 5592 5592 5593 5593 5592
5616 5613 5611 5610 5607 5607 5606 5605 5605 5605 5605 5605 5604 5604 5604 5603 5602 5602 5602 5603 5604 5604 5605 5605 5605 5605 5605 5605 5604 5604 5604 5604 5603 5602 5601 5600 5600 5598 5597 5598 5599 5599 5599 5599 5599 5599 5599 5593 5589 5588 5587 5588 5588 5587 5587 5587 5587 5587 5588 5588 5589 5589 5588
5611 5610 5609 5607 5605 5604 5603 5602 5602 5603 5603 5602 5601 5600 5601 5601 5600 5599 5600 5601 5601 5601 5602 5602 5601 5601 5601 5601 5601 5601 5601 5600 5600 5600 5600 5599 5599 5598 5598 5598 5597 5596 5596 5595 5595 5596 5597 5595 5591 5588 5588 5587 5583 5581 5582 5583 5583 5584 5584 5584 5584 5584 5584
5610 5609 5607 5605 5603 5602 5600 5600 5599 5600 5600 5599 5598 5598 5597 5597 5597 5596 5596 5597 5597 5597 5598 5598 5598 5598 5598 5597 5597 5597 5597 5598 5597 5597 5596 5596 5595 5594 5595 5596 5596 5595 5595 5594 5594 5594 5594 5593 5590 5587 5587 5586 5582 5579 5578 5579 5580 5581 5580 5580 5580 5579 5578
5610 5608 5607 5604 5602 5601 5598 5597 5597 5597 5597 5595 5595 5594 5594 5594 5593 5593 5593 5593 5593 5593 5593 5594 5594 5594 5594 5593 5594 5594 5594 5594 5594 5594 5593 5592 5592 5591 5591 5592 5593 5593 5594 5593 5592 5593 5592 5591 5589 5585 5583 5584 5582 5578 5576 5575 5576 5576 5576 5575 5575 5574 5573
5608 5606 5605 5602 5600 5598 5596 5595 5595 5595 5594 5592 5591 5591 5590 5590 5590 5589 5588 5588 5589 5588 5589 5589 5590 5590 5590 5590 5591 5590 5590 5591 5591 5591 5591 5589 5589 5589 5588 5588 5589 5589 5588 5588 5588 5589 5588 5588 5587 5583 5581 5582 5579 5576 5575 5574 5573 5573 5572 5571 5570 5569 5568
5604 5604 5603 5601 5598 5595 5593 5592 5593 5593 5592 5590 5588 5588 5587 5586 5586 5585 5584 5584 5584 5584 5584 5585 5585 5585 5586 5587 5587 5587 5587 5586 5587 5587 5586 5586 5585 5585 5584 5584 5584 5584 5583 5583 5584 5585 5585 5585 5584 5581 5578 5577 5575 5574 5573 5572 5572 5570 5568 5566 5565 5564 5564
5599 5599 5600 5599 5597 5594 5591 5590 5589 5590 5590 5588 5586 5585 5584 5583 5583 5582 5581 5580 5579 5579 5579 5580 5580 5581 5582 5583 5583 5583 5582 5582 5583 5583 5582 5582 5581 5580 5581 5580 5580 5579 5579 5580 5580 5581 5582 5582 5581 5580 5578 5574 5571 5570 5570 5569 5568 5565 5564 5563 5561 5560 5560
5599 5598 5598 5596 5594 5592 5589 5588 5587 5587 5587 5586 5583 5582 5581 5581 5580 5579 5579 5578 5577 5576 5576 5576 5577 5577 5578 5579 5579 5579 5578 5578 5579 5579 5579 5578 5577 5576 5576 5576 5576 5576 5575 5576 5577 5577 5578 5578 5577 5578 5577 5575 5571 5567 5565 5565 5564 5561 5560 5561 5559 5557 5556
5600 5599 5597 5594 5592 5590 5587 5586 5585 5585 5585 5584 5582 5581 5579 5579 5578 5578 5577 5576 5575 5575 5574 5573 5573 5574 5574 5575 5575 5575 5574 5575 5575 5575 5575 5574 5574 5573 5573 5573 5573 5572 5572 5572 5573 5573 5573 5574 5574 5574 5574 5575 5573 5569 5565 5562 5560 5558 5557 5557 5557 5556 5554
5599 5598 5595 5592 5590 5588 5586 5585 5583 5582 5583 5583 5581 5579 5578 5577 5576 5576 5576 5574 5574 5573 5572 5572 5571 5571 5571 5571 5571 5570 5570 5571 5571 5571 5571 5570 5570 5570 5570 5570 5570 5570 5569 5569 5570 5570 5571 5570 5571 5572 5571 5572 5572 5570 5567 5563 5557 5556 5555 5554 5554 5553 5552
5598 5596 5594 5591 5588 5588 5586 5585 5582 5581 5582 5581 5580 5578 5576 5576 5575 5574 5574 5573 5572 5572 5571 5570 5570 5569 5570 5569 5568 5567 5566 5567 5567 5566 5566 5566 5566 5566 5566 5566 5567 5567 5567 5567 5567 5566 5567 5568 5568 5568 5568 5568 5568 5567 5566 5565 5559 5554 5553 5552 5550 5549 5549
5595 5593 5592 5590 5588 5587 5585 5584 5581 5580 5580 5578 5577 5577 5575 5574 5573 5572 5572 5571 5570 5569 5568 5568 5568 5567 5567 5567 5566 5565 5564 5565 5564 5563 5563 5563 5562 5563 5563 5563 5563 5564 5564 5564 5564 5563 5564 5564 5564 5565 5565 5564 5564 5563 5563 5563 5559 5552 5549 5549 5548 5547 5546
5592 5591 5590 5589 5587 5585 5583 5581 5579 5578 5579 5577 5575 5575 5574 5573 5572 5571 5570 5570 5569 5568 5566 5566 5565 5565 5565 5564 5564 5563 5562 5563 5563 5562 5561 5561 5560 5561 5561 5561 5560 5560 5561 5561 5561 5561 5560 5560 5560 5561 5561 5561 5560 5559 5560 5559 5557 5552 5547 5546 5546 5545 5544
5591 5590 5589 5588 5585 5583 5581 5579 5577 5575 5576 5576 5575 5574 5572 5571 5570 5570 5569 5568 5568 5567 5565 5564 5563 5563 5563 5562 5561 5561 5560 5561 5561 5560 5559 5559 5558 5558 5559 5559 5558 5557 5558 5558 5558 5558 5557 5557 5558 5557 5557 5557 5556 5555 5556 5556 5555 5552 5548 5545 5544 5543 5542
5590 5589 5588 5586 5584 5582 5580 5578 5576 5574 5574 5574 5573 5572 5571 5570 5569 5568 5567 5566 5566 5565 5564 5563 5562 5561 5561 5559 5559 5558 5558 5558 5558 5558 5558 5557 5557 5556 5555 5555 5555 5554 5555 5554 5555 5555 5554 5554 5555 5554 5553 5553 5552 5551 5551 5552 5552 5550 5547 5544 5543 5543 5541
5588 5587 5586 5585 5582 5580 5579 5577 5576 5574 5572 5571 5571 5570 5569 5568 5568 5566 5565 5564 5563 5562 5562 5561 5560 5559 5558 5558 5557 5556 5555 5555 5555 5555 5556 5555 5555 5554 5553 5553 5552 5551 5551 5552 5551 5551 5551 5551 5551 5551 5549 5549 5548 5547 5547 5548 5549 5548 5546 5544 5541 5541 5540
5586 5586 5584 5583 5580 5579 5578 5576 5575 5573 5571 5569 5569 5568 5567 5566 5566 5565 5564 5563 5561 5560 5559 5558 5558 5557 5556 5557 5557 5556 5554 5553 5552 5552 5551 5552 5552 5552 5551 5551 5550 5549 5549 5549 5549 5548 5548 5549 5549 5548 5547 5547 5546 5544 5544 5545 5545 5545 5544 5542 5539 5537 5537
5584 5583 5582 5580 5579 5577 5577 5575 5574 5572 5570 5568 5566 5566 5565 5564 5563 5563 5562 5561 5560 5558 5557 5556 5555 5555 5555 5556 5555 5555 5554 5553 5552 5551 5549 5548 5547 5547 5548 5548 5548 5546 5545 5545 5545 5545 5546 5546 5546 5546 5545 5545 5544 5542 5541 5541 5541 5540 5540 5539 5537 5535 5534
5581 5580 5580 5578 5577 5576 5576 5574 5573 5571 5570 5568 5565 5564 5564 5563 5562 5561 5559 5557 5556 5555 5555 5554 5553 5553 5553 5553 5553 5553 5552 5552 5551 5550 5549 5547 5545 5545 5545 5545 5544 5542 5541 5541 5542 5543 5543 5543 5544 5543 5542 5541 5540 5539 5538 5538 5537 5537 5536 5535 5534 5533 5531
5578 5578 5577 5576 5575 5575 5574 5573 5572 5570 5569 5567 5565 5564 5563 5562 5561 5559 5556 5554 5553 5553 5552 5552 5551 5551 5550 5550 5550 5550 5550 5549 5548 5547 5547 5545 5544 5544 5544 5544 5543 5541 5539 5539 5541 5542 5542 5541 5541 5540 5539 5538 5537 5536 5535 5534 5534 5534 5533 5533 5532 5530 5529
5575 5574 5574 5572 5572 5572 5572 5572 5570 5568 5567 5566 5565 5564 5564 5562 5560 5558 5555 5551 5549 5549 5549 5549 5548 5548 5548 5548 5548 5548 5547 5546 5546 5545 5545 5544 5543 5543 5544 5543 5543 5541 5540 5539 5540 5540 5540 5539 5539 5537 5536 5534 5534 5533 5532 5531 5530 5530 5530 5530 5530 5528 5527
5571 5570 5569 5569 5568 5568 5568 5567 5566 5564 5564 5563 5562 5561 5560 5560 5558 5557 5555 5551 5548 5546 5546 5546 5545 5545 5545 5544 5545 5545 5544 5543 5544 5543 5543 5542 5542 5543 5543 5542 5542 5540 5538 5537 5536 5536 5535 5535 5535 5534 5533 5532 5532 5531 5530 5528 5527 5526 5526 5526 5524 5522 5522
5565 5564 5564 5563 5563 5563 5562 5561 5560 5558 5558 5557 5556 5556 5556 5556 5557 5556 5554 5551 5549 5546 5544 5544 5544 5543 5541 5540 5540 5541 5541 5541 5542 5542 5541 5541 5541 5542 5541 5541 5541 5539 5537 5536 5533 5531 5530 5529 5528 5528 5527 5526 5526 5526 5525 5524 5522 5520 5520 5519 5518 5516 5516
5558 5557 5558 5557 5557 5557 5556 5554 5554 5553 5553 5552 5552 5552 5552 5552 5552 5551 5550 5550 5549 5547 5546 5545 5543 5541 5538 5535 5534 5535 5536 5538 5539 5540 5540 5539 5539 5539 5539 5538 5537 5536 5535 5533 5531 5528 5526 5522 5520 5520 5520 5518 5517 5517 5518 5518 5516 5514 5513 5512 5511 5510 5510
5551 5551 5550 5550 5550 5550 5550 5549 5549 5548 5549 5548 5548 5548 5547 5547 5547 5546 5546 5546 5547 5548 5547 5544 5540 5537 5533 5531 5530 5530 5532 5534 5536 5536 5537 5536 5535 5535 5535 5535 5534 5533 5531 5530 5528 5526 5523 5518 5515 5513 5512 5510 5510 5509 5508 5508 5507 5506 5505 5504 5504 5504 5502
5545 5544 5543 5543 5543 5543 5544 5543 5543 5544 5544 5544 5543 5542 5542 5542 5542 5542 5543 5543 5544 5544 5542 5538 5535 5532 5531 5529 5527 5527 5528 5529 5531 5531 5532 5531 5531 5531 5530 5530 5530 5529 5527 5525 5524 5522 5519 5514 5511 5509 5507 5505 5503 5501 5500 5500 5498 5497 5496 5496 5496 5495 5492
5536 5537 5536 5536 5536 5536 5536 5536 5536 5538 5538 5538 5538 5538 5538 5538 5538 5538 5538 5539 5539 5538 5535 5532 5530 5528 5527 5526 5524 5524 5525 5526 5525 5526 5525 5525 5525 5525 5525 5525 5524 5524 5522 5520 5518 5517 5514 5511 5508 5505 5501 5499 5497 5495 5493 5491 5489 5488 5487 5486 5486 5485 5483
5530 5529 5529 5529 5528 5529 5529 5528 5529 5531 5531 5533 5533 5532 5532 5532 5533 5533 5533 5532 5533 5532 5530 5527 5523 5522 5522 5522 5522 5522 5522 5521 5520 5519 5518 5518 5519 5520 5519 5519 5518 5517 5516 5514 5512 5510 5509 5506 5502 5498 5495 5492 5490 5487 5484 5481 5479 5479 5478 5477 5476 5475 5474
5523 5523 5522 5522 5522 5523 5522 5522 5523 5524 5524 5526 5527 5526 5526 5526 5527 5527 5526 5527 5527 5526 5524 5520 5518 5519 5519 5519 5519 5519 5518 5516 5514 5512 5511 5512 5513 5513 5512 5512 5512 5511 5509 5507 5504 5503 5501 5500 5496 5492 5489 5485 5482 5479 5476 5473 5471 5470 5469 5468 5467 5466 5465
5515 5516 5516 5516 5517 5517 5516 5516 5517 5517 5519 5521 5520 5520 5519 5518 5519 5520 5520 5520 5521 5520 5517 5514 5514 5515 5515 5515 5515 5514 5513 5511 5508 5506 5505 5505 5505 5504 5503 5503 5504 5504 5502 5499 5496 5495 5493 5492 5490 5486 5482 5479 5476 5474 5470 5467 5465 5463 5462 5461 5460 5459 5458
5508 5508 5509 5511 5512 5511 5511 5511 5511 5511 5513 5514 5514 5513 5513 5513 5513 5513 5514 5514 5514 5514 5513 5509 5508 5508 5508 5508 5508 5508 5508 5505 5503 5501 5500 5499 5498 5497 5495 5494 5494 5495 5493 5490 5489 5487 5486 5485 5483 5479 5476 5475 5472 5468 5464 5462 5460 5458 5457 5456 5456 5454 5453
5500 5501 5503 5504 5506 5506 5505 5505 5505 5505 5506 5507 5506 5506 5507 5508 5507 5506 5507 5507 5506 5506 5506 5503 5501 5501 5500 5500 5501 5502 5503 5501 5498 5496 5494 5493 5492 5490 5488 5487 5485 5483 5483 5481 5480 5478 5478 5477 5475 5473 5471 5470 5467 5462 5458 5455 5452 5451 5451 5451 5449 5448 5447
5493 5493 5494 5496 5498 5500 5500 5500 5500 5500 5500 5499 5499 5498 5498 5499 5500 5499 5499 5500 5499 5498 5498 5497 5495 5493 5493 5493 5492 5494 5496 5494 5493 5490 5489 5487 5486 5484 5482 5480 5476 5473 5473 5473 5471 5469 5468 5467 5466 5465 5462 5459 5456 5452 5450 5449 5446 5444 5445 5444 5443 5443 5442
5484 5486 5486 5487 5489 5492 5493 5495 5494 5494 5494 5493 5491 5490 5490 5492 5493 5492 5491 5491 5491 5491 5489 5489 5489 5487 5487 5486 5485 5487 5487 5487 5486 5485 5483 5482 5480 5477 5475 5472 5468 5465 5465 5464 5462 5460 5459 5457 5456 5454 5450 5447 5445 5443 5443 5443 5441 5440 5440 5439 5438 5437 5436
5476 5478 5479 5479 5480 5482 5484 5485 5486 5487 5488 5488 5486 5485 5484 5485 5485 5484 5483 5481 5481 5482 5482 5482 5481 5480 5480 5480 5479 5479 5480 5479 5479 5480 5478 5476 5472 5470 5467 5464 5459 5457 5456 5455 5453 5451 5450 5448 5446 5443 5440 5438 5437 5436 5436 5436 5435 5434 5433 5432 5431 5431 5430
5468 5470 5472 5472 5473 5473 5473 5475 5477 5479 5480 5481 5481 5479 5477 5479 5479 5477 5474 5473 5472 5473 5474 5474 5473 5471 5471 5471 5471 5472 5471 5471 5471 5472 5471 5469 5466 5463 5460 5456 5452 5449 5448 5446 5444 5442 5441 5439 5437 5435 5433 5432 5431 5430 5431 5430 5428 5427 5426 5425 5425 5425 5423